Location: Maiden
(35.5760°N, 81.2120°W)
Time: 01:55:44
(UTC-04:00)

KM-V1 - Pass Details

Date: 02 August 2020
Orbit: 247 x 3948 km, 31.1° (Epoch: 11 August)

Event Time Altitude Azimuth Distance (km) Brightness Sun altitude
Rises 21:35:33 0° 250° (WSW) 2,789 8.5 -13.1°
Reaches altitude 10° 21:38:33 10° 239° (WSW) 1,483 6.9 -13.6°
Maximum altitude 21:41:12 26° 179° (S) 654 4.4 -14.1°
Enters shadow 21:41:18 26° 174° (S) 650 4.3 -14.1°
